Flag for China Weather past 2 weeks in Dalian, Liaoning, China

Now
34 °F

Fog.


Feels Like: 27 °F
Forecast: 19 / 33 °F
Wind: 8 mph from West

Location: Dalian Airport

Current Time: Jan 26, 2015 at 4:43:27 AM

Latest Report: Jan 26, 2015 at 4:00 AM


Visibility: 2 mi

Pressure: 30.21 "Hg

Humidity: 87%

Dew point: 30 °F

Location of DalianLocation

Historic Weather in Dalian — Graph

°F

Dalian temperature yesterday

Maximum temperature yesterday: 34 °F (at 10:30 AM)
Minimum temperature yesterday: 28 °F (at 4:00 AM)
Average temperature yesterday: 32 °F

Past Weeks' High & Low Weather Summary

 TemperatureHumidityPressure
High43 °F (Jan 13, 1:00 PM)100% (Jan 18, 1:30 PM)30.72 "Hg (Jan 18, 1:30 PM)
Low18 °F (Jan 20, 2:30 AM)21% (Jan 12, 12:30 PM)29.95 "Hg (Jan 18, 1:30 PM)
Average30 °F69%30.33 "Hg
* Reported Jan 11 3:00 AM — Jan 26 3:30 AM, Dalian, Weather by CustomWeather, © 2014

Note: Actual official high and low records may vary slightly from our data, if they occured in-between our weather recording intervals... More about our weather records

Advertising

Dalian weather history for previous 24 hours

 ConditionsComfort  
Time TempWeatherWind HumidityBarometerVisibility
3:30 AM
Jan 26
34 °FFog.3 mph93%30.21 "Hg1 mi
3:00 AM34 °FFog.1 mph93%30.21 "Hg1 mi
2:30 AM32 °FIce fog.1 mph100%30.21 "Hg1 mi
2:00 AM34 °FFog.1 mph93%30.24 "Hg1 mi
1:30 AM34 °FFog.1 mph93%30.24 "Hg1 mi
1:00 AM34 °FFog.1 mph93%30.24 "Hg2 mi
12:30 AM34 °FFog.6 mph93%30.27 "Hg2 mi
12:00 AM34 °FFog.3 mph93%30.27 "Hg2 mi
11:30 PM
Jan 25
34 °FFog.6 mph93%30.27 "Hg2 mi
11:00 PM34 °FFog.8 mph93%30.24 "Hg1 mi
10:30 PM34 °FFog.3 mph93%30.24 "Hg1 mi
10:00 PM34 °FFog.3 mph93%30.24 "Hg1 mi
9:30 PM34 °FFog.No wind100%30.24 "Hg1 mi
9:00 PM34 °FFog.1 mph100%30.24 "Hg1 mi
8:30 PM34 °FFog.1 mph100%30.21 "Hg1 mi
8:00 PM34 °FFog.1 mph93%30.21 "Hg1 mi
7:30 PM34 °FFog.1 mph100%30.21 "Hg1 mi
7:00 PM34 °FFog.1 mph100%30.24 "Hg2 mi
6:30 PM34 °FFog.3 mph100%30.21 "Hg1 mi
6:00 PM34 °FFog.3 mph100%30.21 "Hg1 mi
5:30 PM34 °FFog.1 mph100%30.21 "Hg1 mi
5:00 PM34 °FFog.No wind100%30.21 "Hg1 mi
4:30 PM34 °FFog.No wind100%30.21 "Hg1 mi
4:00 PM34 °FFog.No wind100%30.18 "Hg1 mi
3:30 PM34 °FFog.3 mph93%30.18 "Hg1 mi
3:00 PM34 °FFog.3 mph93%30.21 "Hg1 mi
2:30 PM34 °FFog.1 mph100%30.21 "Hg1 mi
2:00 PM34 °FFog.3 mph100%30.21 "Hg1 mi
1:30 PM34 °FFog.3 mph100%30.21 "Hg1 mi
1:00 PM34 °FFog.6 mph100%30.21 "Hg1 mi
12:30 PM34 °FFog.6 mph100%30.24 "Hg1 mi
12:00 PM34 °FFog.6 mph100%30.24 "Hg2 mi
11:30 AM34 °FFog.8 mph93%30.24 "Hg2 mi
10:30 AM34 °FFog.6 mph93%30.27 "Hg2 mi
10:00 AM32 °FIce fog.6 mph100%30.27 "Hg2 mi
9:30 AM32 °FIce fog.8 mph93%30.27 "Hg2 mi
9:00 AM32 °FLight snow. Ice fog.10 mph93%30.27 "Hg2 mi
8:30 AM32 °FLight snow. Ice fog.8 mph93%30.27 "Hg2 mi
8:00 AM30 °FLight snow. Ice fog.6 mph100%30.27 "Hg2 mi
7:30 AM32 °FLight snow. Ice fog.3 mph100%30.27 "Hg1 mi
7:00 AM30 °FLight snow. Ice fog.No wind100%30.27 "Hg1 mi
6:30 AM30 °FLight snow. Passing clouds.No wind100%30.27 "Hg1 mi
6:00 AM30 °FLight snow. Passing clouds.No wind100%30.27 "Hg1 mi
5:30 AM30 °FLight snow. Passing clouds.1 mph100%30.27 "Hg1 mi
5:00 AM30 °FLight snow. Passing clouds.3 mph100%30.27 "Hg1 mi
4:30 AM30 °FLight snow. Passing clouds.1 mph100%30.27 "Hg1 mi
4:00 AM28 °FLight snow. Passing clouds.1 mph100%30.27 "Hg1 mi
Weather by CustomWeather, © 2014

See weather overviewHow to use our weather pages